COSMOS 2556 (52713 NORAD) Tracking and Keplerian Element Data

This shows tracking and keplerian element data for the satellite.

Feedback or suggestion? Click here.




ElementValue
Catalog52713
NameCOSMOS 2556
Epoch Orbit3634
Epoch Day14.2056785
Epoch Year2023
RAAN294.748
Inclination97.553
Eccentricity0.0006047
Argument of Perigee324.4688
Mean Anonmoly178.3878
Mean Motion15.20359989
Decay Rate5.242E-05
L11 52713U 22054A 23014.20567850 .00005242 00000+0 24399-3 0 9996
L22 52713 97.5530 294.7480 0006047 324.4688 178.3878 15.20359989 36344



Live tracking and technical data element details for COSMOS 2556 (NORAD 52713). COSMOS 2556 can be tracked NOW for your location showing map with azimuth and elevation plus other details from your city location.







IsCatalogInMostPopularTable: catalog: 52713, numindb: 817
Update: records affected: 1



GetName: 52713 COSMOS 2556

Hit Count: updated at: Wed, 08 Feb 2023 18:00:27 GMT